Weather reports worldwide

Advertisment
Marham, United Kingdom (3482): temperature & dewpoint: 15.05.2019 04:00:00 - 21.05.2019 04:00:00 (BST)Marham, United Kingdom (3482): temperature -20cm & temperature -100cm: 15.05.2019 04:00:00 - 21.05.2019 04:00:00 (BST)Marham, United Kingdom (3482): wind speed: 15.05.2019 04:00:00 - 21.05.2019 04:00:00 (BST)Marham, United Kingdom (3482): wind direction: 15.05.2019 04:00:00 - 21.05.2019 04:00:00 (BST)Marham, United Kingdom (3482): reduced air pressure: 15.05.2019 04:00:00 - 21.05.2019 04:00:00 (BST)Marham, United Kingdom (3482): visibility: 15.05.2019 04:00:00 - 21.05.2019 04:00:00 (BST)Marham, United Kingdom (3482): precipitation: 15.05.2019 04:00:00 - 21.05.2019 04:00:00 (BST)
Date & Time tt [°C] td [°C] tt -20cm [°C] tt -100cm [°C] ff [km/h] ff [kn] dd ppp [hPa] vv [km] rr [mm]
21.05.2019 04:00:00 9,1 9,0 - - 5 3 WNW 1015,9 0,3 0,0
21.05.2019 03:00:00 8,4 8,3 - - 9 5 NNW 1016,0 0,1 0,0
21.05.2019 02:00:00 7,5 7,3 - - 5 3 NNE 1015,6 0,1 0,0
21.05.2019 01:00:00 6,9 6,3 - - 4 2 N 1015,5 3,0 0,0
21.05.2019 00:00:00 8,2 7,3 - - 9 5 N 1015,2 6 0,0
20.05.2019 23:00:00 9,8 8,0 - - 8 4 N 1015,3 10 0,0
20.05.2019 22:00:00 10,8 8,0 - - 5 3 NNE 1015,0 10 0,0
20.05.2019 21:00:00 12,3 8,6 - - 8 4 N 1014,3 20 0,0
20.05.2019 20:00:00 15,3 8,8 - - 13 7 NNE 1013,6 10 0,0
20.05.2019 19:00:00 16,8 8,5 - - 13 7 N 1013,4 25 0,0
20.05.2019 18:00:00 17,6 8,9 - - 13 7 N 1013,1 10 0,0
20.05.2019 17:00:00 18,1 9,7 - - 15 8 N 1012,8 10 0,0
20.05.2019 16:00:00 17,9 8,9 - - 15 8 N 1013,0 10 0,0
20.05.2019 15:00:00 17,5 9,5 - - 18 10 N 1013,1 10 0,0
20.05.2019 14:00:00 16,2 10,2 - - 16 9 N 1013,0 10 0,0
20.05.2019 13:00:00 14,8 11,3 - - 13 7 NNW 1012,9 7 0,0
20.05.2019 12:00:00 13,4 11,0 - - 13 7 NNW 1012,8 5 0,0
20.05.2019 11:00:00 12,6 10,8 - - 11 6 N 1012,7 4,0 0,0
20.05.2019 10:00:00 12,0 10,7 12,7 11,2 13 7 N 1012,5 4,0 0,0
20.05.2019 09:00:00 11,9 10,8 - - 13 7 NNW 1012,1 4,0 0,0
20.05.2019 08:00:00 11,4 10,9 - - 15 8 NNW 1011,6 3,0 0,0
20.05.2019 07:00:00 10,7 10,4 - - 11 6 NNW 1011,3 2,7 0,2
20.05.2019 06:00:00 10,4 10,1 - - 13 7 N 1011,1 2,7 0,0
20.05.2019 05:00:00 10,4 10,1 - - 13 7 NNW 1011,0 2,7 0,0
20.05.2019 04:00:00 10,3 9,9 - - 11 6 N 1010,9 3,0 0,0
20.05.2019 03:00:00 10,2 9,9 - - 9 5 N 1011,1 3,3 0,0
20.05.2019 02:00:00 10,3 9,9 - - 11 6 N 1011,1 2,7 0,2
20.05.2019 01:00:00 10,4 9,8 - - 9 5 NNW 1011,3 4,0 0,0
20.05.2019 00:00:00 10,6 9,6 - - 8 4 N 1011,6 6 0,0
19.05.2019 23:00:00 11,2 9,7 - - 8 4 N 1011,6 8 0,6
19.05.2019 22:00:00 11,8 9,1 - - 8 4 NE 1011,4 12 0,0
19.05.2019 21:00:00 12,8 8,1 - - 9 5 NE 1011,1 10 0,0
19.05.2019 20:00:00 14,0 7,3 - - 13 7 NE 1010,5 22 0,0
19.05.2019 19:00:00 15,3 8,9 - - 15 8 NE 1010,1 10 0,0
19.05.2019 18:00:00 16,3 8,8 - - 13 7 NNE 1009,9 23 0,0
19.05.2019 17:00:00 17,1 9,6 - - 13 7 NE 1010,0 20 0,0
19.05.2019 16:00:00 17,5 10,3 - - 11 6 NNE 1010,1 18 0,0
19.05.2019 15:00:00 17,0 9,6 - - 11 6 N 1010,1 10 0,0
19.05.2019 14:00:00 16,4 9,2 - - 9 5 NW 1010,3 10 0,0
19.05.2019 13:00:00 15,8 9,9 - - 8 4 N 1010,4 9 0,0
19.05.2019 12:00:00 15,2 9,5 - - 5 3 NNW 1010,3 8 0,0
19.05.2019 11:00:00 14,3 9,9 - - 9 5 NW 1010,3 7 0,0
19.05.2019 10:00:00 13,8 10,2 12,2 11,0 9 5 N 1010,3 6 0,0
19.05.2019 09:00:00 12,1 10,8 - - 5 3 N 1009,9 5 0,0
19.05.2019 08:00:00 10,4 10,2 - - 4 2 NE 1009,6 5 0,0
19.05.2019 07:00:00 7,3 7,3 - - 4 2 NNE 1009,4 4,1 0,0
19.05.2019 06:00:00 4,7 4,6 - - 4 2 N 1009,4 0,5 0,0
19.05.2019 05:00:00 4,8 4,6 - - 5 3 NNE 1009,0 0,2 0,0
19.05.2019 04:00:00 5,4 5,2 - - 2 1 NW 1009,1 0,1 0,0
19.05.2019 03:00:00 6,4 6,2 - - 5 3 N 1008,7 0,3 0,0
19.05.2019 02:00:00 7,0 6,8 - - 5 3 NE 1008,6 0,2 0,0
19.05.2019 01:00:00 7,9 7,5 - - 2 1 ENE 1008,7 0,3 0,0
19.05.2019 00:00:00 8,6 8,2 - - 8 4 NE 1008,8 1,7 0,0
18.05.2019 23:00:00 8,9 8,2 - - 9 5 N 1008,8 2,8 0,0
18.05.2019 22:00:00 10,8 9,7 - - 5 3 NE 1008,7 4,2 0,0
18.05.2019 21:00:00 12,6 10,8 - - 9 5 E 1008,2 5 0,0
18.05.2019 20:00:00 13,5 10,8 - - 9 5 E 1007,7 7 0,0
18.05.2019 19:00:00 14,0 11,2 - - 8 4 E 1007,4 8 0,0
18.05.2019 18:00:00 14,0 11,0 - - 11 6 NE 1007,2 9 0,0
18.05.2019 17:00:00 14,4 10,9 - - 9 5 NE 1007,0 10 0,0
18.05.2019 16:00:00 13,8 11,7 - - 9 5 N 1006,9 9 1,2
18.05.2019 15:00:00 14,5 9,9 - - 8 4 NNE 1006,6 10 0,0
18.05.2019 14:00:00 14,1 9,8 - - 9 5 NNE 1006,6 13 0,0
18.05.2019 13:00:00 13,5 10,2 - - 13 7 NW 1006,6 10 0,0
18.05.2019 12:00:00 14,1 9,6 - - 4 2 SE 1006,5 10 0,0
18.05.2019 11:00:00 13,7 10,2 - - 4 2 SW 1006,6 8 0,0
18.05.2019 10:00:00 12,3 10,3 12,0 11,0 2 1 ENE 1006,4 7 0,2
18.05.2019 09:00:00 11,6 10,0 - - 4 2 E 1006,4 5 0,0
18.05.2019 08:00:00 11,2 10,5 - - 4 2 NE 1006,2 6 0,0
18.05.2019 07:00:00 10,4 10,2 - - 5 3 NE 1005,9 4,1 0,2
18.05.2019 06:00:00 10,0 9,7 - - 4 2 NNE 1005,9 4,5 0,0
18.05.2019 05:00:00 9,9 9,5 - - 5 3 NNE 1005,8 5 0,0
18.05.2019 04:00:00 9,9 9,4 - - 5 3 NE 1006,2 8 0,2
18.05.2019 03:00:00 10,3 10,0 - - 5 3 NE 1006,5 10 0,0
18.05.2019 02:00:00 10,3 10,1 - - 5 3 NNE 1006,8 8 0,0
18.05.2019 01:00:00 10,2 10,0 - - 8 4 N 1007,0 3,0 0,0
18.05.2019 00:00:00 10,2 9,8 - - 8 4 N 1007,3 6 0,0
17.05.2019 23:00:00 10,2 9,8 - - 9 5 N 1007,5 12 0,0
17.05.2019 22:00:00 10,2 9,8 - - 9 5 NNE 1007,7 9 0,2
17.05.2019 21:00:00 10,4 9,6 - - 11 6 NNE 1008,0 11 0,0
17.05.2019 20:00:00 10,7 9,2 - - 11 6 NE 1008,1 13 0,0
17.05.2019 19:00:00 11,0 9,0 - - 15 8 NE 1008,0 20 0,0
17.05.2019 18:00:00 11,2 8,9 - - 13 7 NE 1008,3 25 0,0
17.05.2019 17:00:00 11,2 8,9 - - 18 10 ENE 1008,8 10 0,0
17.05.2019 16:00:00 12,7 8,4 - - 22 12 ENE 1009,0 10 0,0
17.05.2019 15:00:00 13,7 8,5 - - 26 14 NE 1009,2 10 0,0
17.05.2019 14:00:00 14,0 8,7 - - 26 14 NE 1009,4 15 0,0
17.05.2019 13:00:00 14,2 9,6 - - 21 11 NE 1009,4 15 0,0
17.05.2019 12:00:00 13,1 10,3 - - 18 10 NE 1009,9 10 0,0
17.05.2019 11:00:00 12,6 9,8 - - 18 10 NE 1010,1 10 0,0
17.05.2019 10:00:00 12,1 10,2 12,2 10,9 21 11 NE 1010,5 8 0,2
17.05.2019 09:00:00 11,0 9,4 - - 18 10 NE 1011,0 7 0,4
17.05.2019 08:00:00 11,8 9,2 - - 18 10 NE 1011,3 10 0,0
17.05.2019 07:00:00 10,7 9,3 - - 18 10 NE 1011,2 10 0,0
17.05.2019 06:00:00 10,8 8,2 - - 26 14 NNE 1011,5 10 0,0
17.05.2019 05:00:00 10,7 7,5 - - 18 10 NNE 1011,8 10 0,0
17.05.2019 04:00:00 10,3 6,4 - - 21 11 N 1012,4 10 0,0
17.05.2019 03:00:00 10,4 7,6 - - 21 11 NNE 1013,1 23 0,0
17.05.2019 02:00:00 10,4 8,1 - - 18 10 NNE 1014,1 18 0,0
17.05.2019 01:00:00 10,6 7,7 - - 18 10 NE 1015,0 10 0,0
17.05.2019 00:00:00 10,5 7,4 - - 18 10 NE 1015,7 10 0,0
16.05.2019 23:00:00 9,6 7,2 - - 13 7 NE 1016,4 10 0,0
16.05.2019 22:00:00 9,2 6,6 - - 13 7 NNE 1016,9 20 0,0
16.05.2019 21:00:00 10,2 5,8 - - 15 8 NE 1017,2 10 0,0
16.05.2019 20:00:00 12,1 4,6 - - 18 10 NE 1017,5 10 0,0
16.05.2019 19:00:00 13,3 2,6 - - 24 13 NE 1017,8 10 0,0
16.05.2019 18:00:00 13,5 2,8 - - 24 13 ENE 1018,4 10 0,0
16.05.2019 17:00:00 14,0 3,4 - - 24 13 ENE 1019,0 10 0,0
16.05.2019 16:00:00 14,8 4,5 - - 24 13 ENE 1019,4 10 0,0
16.05.2019 15:00:00 16,1 3,4 - - 26 14 E 1019,9 10 0,0
16.05.2019 14:00:00 16,5 3,0 - - 28 15 E 1020,5 10 0,0
16.05.2019 13:00:00 16,5 3,2 - - 26 14 E 1021,0 10 0,0
16.05.2019 12:00:00 16,0 1,7 - - 24 13 E 1021,5 25 0,0
16.05.2019 11:00:00 15,8 4,9 - - 22 12 E 1021,8 10 0,0
16.05.2019 10:00:00 14,0 7,9 12,2 10,7 18 10 E 1022,1 10 0,0
16.05.2019 09:00:00 12,8 8,3 - - 18 10 ENE 1022,7 10 0,0
16.05.2019 08:00:00 11,3 8,7 - - 21 11 E 1022,8 10 0,0
16.05.2019 07:00:00 9,1 7,4 - - 13 7 ENE 1022,8 10 0,0
16.05.2019 06:00:00 7,5 6,2 - - 13 7 ENE 1022,8 10 0,0
16.05.2019 05:00:00 6,5 5,5 - - 13 7 ENE 1022,8 10 0,0
16.05.2019 04:00:00 5,7 4,9 - - 9 5 NE 1023,2 10 0,0
16.05.2019 03:00:00 4,5 3,3 - - 9 5 NE 1024,0 12 0,0
16.05.2019 02:00:00 6,2 5,1 - - 8 4 ENE 1024,4 14 0,0
16.05.2019 01:00:00 5,6 3,8 - - 9 5 ENE 1024,8 10 0,0
16.05.2019 00:00:00 7,1 4,8 - - 8 4 ENE 1025,1 15 0,0
15.05.2019 23:00:00 7,5 3,6 - - 8 4 ENE 1025,1 10 0,0
15.05.2019 22:00:00 9,3 4,1 - - 9 5 E 1025,5 25 0,0
15.05.2019 21:00:00 10,7 3,5 - - 8 4 E 1025,5 10 0,0
15.05.2019 20:00:00 13,7 3,9 - - 15 8 E 1025,3 10 0,0
15.05.2019 19:00:00 15,1 4,7 - - 18 10 E 1025,1 10 0,0
15.05.2019 18:00:00 16,2 5,9 - - 18 10 E 1025,2 10 0,0
15.05.2019 17:00:00 17,0 5,3 - - 22 12 ENE 1025,3 10 0,0
15.05.2019 16:00:00 18,3 5,9 - - 11 6 E 1025,6 10 0,0
15.05.2019 15:00:00 18,3 6,0 - - 9 5 ENE 1026,2 10 0,0
15.05.2019 14:00:00 17,8 5,7 - - 11 6 NNE 1026,7 10 0,0
15.05.2019 13:00:00 17,3 5,6 - - 9 5 ENE 1027,3 10 0,0
15.05.2019 12:00:00 16,2 3,6 - - 9 5 E 1027,7 25 0,0
15.05.2019 11:00:00 15,4 4,6 - - 11 6 ENE 1028,3 10 0,0
15.05.2019 10:00:00 14,4 4,8 12,0 10,7 5 3 E 1028,7 10 0,0
15.05.2019 09:00:00 12,3 6,5 - - 8 4 E 1029,1 10 0,0
15.05.2019 08:00:00 11,4 7,7 - - 13 7 E 1029,3 10 0,0
15.05.2019 07:00:00 9,1 7,2 - - 11 6 E 1029,3 10 0,0
15.05.2019 06:00:00 5,7 5,2 - - 5 3 E 1029,4 10 0,0
15.05.2019 05:00:00 5,0 4,1 - - 4 2 E 1029,6 10 0,0
15.05.2019 04:00:00 4,6 3,4 - - 2 1 ESE 1030,0 10 0,0

tt = temperature
td = dewpoint
tt -20cm = temperature -20cm
tt -100cm = temperature -100cm
ff = wind speed
dd = wind direction
ppp = reduced air pressure
vv = visibility
rr = precipitation

Next stations